EW1134 Weather Reports


Display with metric or nautical units.
time (UTC)temp
F
wind
direction
speed
MPH
gust
MPH
rain 1hr
in
rain 24hr
in
rain mn
in
humidity
%
barometer
mb
20260903123504 90 332 8.0 19.0 0.00 0.00 0.00 37 1012.5
20260903123004 90 312 10.0 24.0 0.00 0.00 0.00 37 1012.5
20260903122504 90 324 9.0 24.0 0.00 0.00 0.00 37 1012.3
20260903122004 90 328 7.0 17.0 0.00 0.00 0.00 36 1012.6
20260903121505 90 317 8.0 18.0 0.00 0.00 0.00 37 1012.4
20260903121004 90 333 8.0 18.0 0.00 0.00 0.00 37 1012.8
20260903120004 91 333 9.0 17.0 0.00 0.00 0.00 35 1012.7
20260903115504 91 313 7.0 17.0 0.00 0.00 0.00 35 1012.8
20260903115004 91 332 6.0 13.0 0.00 0.00 0.00 35 1012.9
20260903114505 90 1 6.0 13.0 0.00 0.00 0.00 36 1012.8
20260903114005 90 346 7.0 20.0 0.00 0.00 0.00 37 1012.6
20260903113005 90 2 8.0 17.0 0.00 0.00 0.00 38 1012.9
20260903112004 90 329 8.0 15.0 0.00 0.00 0.00 38 1013.1
20260903111004 90 308 8.0 15.0 0.00 0.00 0.00 38 1013.0
20260903110504 89 324 9.0 19.0 0.00 0.00 0.00 37 1013.0
20260903110004 89 345 9.0 19.0 0.00 0.00 0.00 37 1013.0
20260903105504 90 331 8.0 16.0 0.00 0.00 0.00 36 1013.2
20260903105003 90 308 6.0 16.0 0.00 0.00 0.00 37 1013.1
20260903104504 89 309 6.0 16.0 0.00 0.00 0.00 38 1013.0
20260903104005 89 312 8.0 20.0 0.00 0.00 0.00 38 1013.2
20260903103503 89 314 9.0 20.0 0.00 0.00 0.00 37 1013.2
20260903103005 89 348 9.0 19.0 0.00 0.00 0.00 37 1013.1
20260903102504 89 343 9.0 19.0 0.00 0.00 0.00 36 1013.1
20260903102004 89 309 8.0 17.0 0.00 0.00 0.00 37 1013.3
20260903101504 89 303 9.0 22.0 0.00 0.00 0.00 38 1013.2
20260903101004 89 315 10.0 22.0 0.00 0.00 0.00 38 1013.5
20260903100504 89 341 9.0 21.0 0.00 0.00 0.00 37 1013.3
20260903095005 90 336 7.0 15.0 0.00 0.00 0.00 35 1013.4
20260903094504 89 321 8.0 17.0 0.00 0.00 0.00 35 1013.4
20260903093504 89 325 9.0 19.0 0.00 0.00 0.00 35 1013.8
20260903092504 89 336 9.0 19.0 0.00 0.00 0.00 33 1013.9
20260903092004 89 334 9.0 18.0 0.00 0.00 0.00 33 1013.8
20260903091505 89 357 8.0 18.0 0.00 0.00 0.00 32 1013.6
20260903091003 89 21 8.0 16.0 0.00 0.00 0.00 33 1013.9
20260903090504 89 7 7.0 14.0 0.00 0.00 0.00 33 1014.0
20260903090005 88 325 7.0 16.0 0.00 0.00 0.00 33 1013.8
20260903085503 88 304 8.0 17.0 0.00 0.00 0.00 35 1013.9
20260903085004 88 322 7.0 17.0 0.00 0.00 0.00 35 1014.1
20260903084505 88 329 6.0 14.0 0.00 0.00 0.00 35 1014.2
20260903084004 88 338 7.0 15.0 0.00 0.00 0.00 34 1014.0
20260903083505 88 358 7.0 15.0 0.00 0.00 0.00 34 1014.0
20260903083005 88 355 7.0 15.0 0.00 0.00 0.00 35 1014.2
20260903082504 88 323 7.0 15.0 0.00 0.00 0.00 35 1014.2
20260903081004 88 325 5.0 13.0 0.00 0.00 0.00 36 1014.2
20260903075504 88 315 3.0 11.0 0.00 0.00 0.00 40 1014.1
20260903075005 88 303 2.0 11.0 0.00 0.00 0.00 39 1014.2
20260903074504 88 339 2.0 6.0 0.00 0.00 0.00 41 1013.9
20260903074004 87 18 2.0 6.0 0.00 0.00 0.00 42 1014.2
20260903073504 87 283 1.0 8.0 0.00 0.00 0.00 43 1014.2
20260903072503 86 289 2.0 7.0 0.00 0.00 0.00 44 1014.2
20260903072004 85 292 2.0 7.0 0.00 0.00 0.00 45 1014.1
20260903071504 85 286 2.0 5.0 0.00 0.00 0.00 45 1014.3
20260903070504 84 247 2.0 5.0 0.00 0.00 0.00 46 1014.4
20260903070004 84 249 2.0 5.0 0.00 0.00 0.00 46 1014.3
20260903065004 84 289 2.0 9.0 0.00 0.00 0.00 46 1014.4
20260903064504 83 270 1.0 4.0 0.00 0.00 0.00 47 1014.4
20260903064003 82 274 2.0 6.0 0.00 0.00 0.00 47 1014.3
20260903063504 82 248 2.0 6.0 0.00 0.00 0.00 46 1014.0
20260903062504 81 254 3.0 7.0 0.00 0.00 0.00 46 1014.1
20260903062004 81 247 2.0 6.0 0.00 0.00 0.00 46 1014.3
20260903061004 80 225 2.0 6.0 0.00 0.00 0.00 46 1014.6
20260903060504 79 242 1.0 4.0 0.00 0.00 0.00 46 1014.4
20260903060005 79 269 1.0 4.0 0.00 0.00 0.00 46 1014.5
20260903055504 78 281 1.0 4.0 0.00 0.00 0.00 46 1014.6
20260903055005 78 278 1.0 5.0 0.00 0.00 0.00 47 1014.6
20260903054004 77 261 2.0 7.0 0.00 0.00 0.00 46 1014.5
20260903053504 76 248 2.0 5.0 0.00 0.00 0.00 46 1014.3
20260903053004 76 241 2.0 6.0 0.00 0.00 0.00 46 1014.4
20260903052504 75 232 2.0 7.0 0.00 0.00 0.00 47 1014.4
20260903052003 75 220 1.0 7.0 0.00 0.00 0.00 48 1014.5
20260903051504 75 234 1.0 5.0 0.00 0.00 0.00 48 1014.4
20260903051004 74 242 2.0 5.0 0.00 0.00 0.00 48 1014.4
20260903050503 74 236 3.0 8.0 0.00 0.00 0.00 48 1014.6
20260903050005 74 228 3.0 8.0 0.00 0.00 0.00 48 1014.5
20260903045504 74 237 4.0 9.0 0.00 0.00 0.00 48 1014.4
20260903045003 73 254 4.0 9.0 0.00 0.00 0.00 48 1014.7
20260903044505 73 253 3.0 9.0 0.00 0.00 0.00 48 1014.7
20260903044004 72 270 3.0 9.0 0.00 0.00 0.00 49 1014.7
20260903043504 72 275 2.0 6.0 0.00 0.00 0.00 49 1014.9
20260903042504 71 225 2.0 4.0 0.00 0.00 0.00 48 1014.9
20260903042003 81 225 3.0 4.0 0.00 0.00 0.00 46 1014.3
20260903041506 81 225 3.0 4.0 0.00 0.00 0.00 46 1014.3
20260903041003 81 225 3.0 4.0 0.00 0.00 0.00 46 1014.3
20260903040505 81 225 3.0 4.0 0.00 0.00 0.00 46 1014.1
20260903040008 81 225 3.0 4.0 0.00 0.00 0.00 46 1014.2
20260903035504 81 225 3.0 4.0 0.00 0.00 0.00 46 1014.2
20260903035004 81 225 3.0 4.0 0.00 0.00 0.00 46 1014.3
20260903034505 81 225 3.0 4.0 0.00 0.00 0.00 46 1014.2
20260903034004 81 225 3.0 4.0 0.00 0.00 0.00 46 1014.2
20260903033504 81 225 3.0 4.0 0.00 0.00 0.00 46 1014.2
20260903033005 81 225 3.0 4.0 0.00 0.00 0.00 46 1014.3
20260903032504 81 225 3.0 4.0 0.00 0.00 0.00 46 1014.2
20260903032005 81 225 3.0 4.0 0.00 0.00 0.00 46 1014.1
20260903031504 81 225 3.0 4.0 0.00 0.00 0.00 46 1014.1
20260903030005 81 225 3.0 4.0 0.00 0.00 0.00 46 1014.3
20260903025004 81 225 3.0 4.0 0.00 0.00 0.00 46 1014.3
20260903024505 81 225 3.0 4.0 0.00 0.00 0.00 46 1014.2
20260903024004 81 225 3.0 4.0 0.00 0.00 0.00 46 1014.3
20260903023505 81 225 3.0 4.0 0.00 0.00 0.00 46 1014.2
20260903023004 81 225 3.0 4.0 0.00 0.00 0.00 46 1014.3
20260903022004 81 225 3.0 4.0 0.00 0.00 0.00 46 1014.2
20260903021004 81 225 3.0 4.0 0.00 0.00 0.00 46 1014.1
20260903020504 81 225 3.0 4.0 0.00 0.00 0.00 46 1014.0
20260903020004 81 225 3.0 4.0 0.00 0.00 0.00 46 1013.9
20260903015504 81 225 3.0 4.0 0.00 0.00 0.00 46 1013.9
20260903015003 81 225 3.0 4.0 0.00 0.00 0.00 46 1013.8
20260903014505 81 225 3.0 4.0 0.00 0.00 0.00 46 1013.9
20260903013005 81 225 3.0 4.0 0.00 0.00 0.00 46 1013.9
20260903012504 81 225 3.0 4.0 0.00 0.00 0.00 46 1013.9
20260903012004 81 225 3.0 4.0 0.00 0.00 0.00 46 1014.0
20260903011504 81 225 3.0 4.0 0.00 0.00 0.00 46 1013.8
20260903011004 81 225 3.0 4.0 0.00 0.00 0.00 46 1013.8
20260903010004 81 225 3.0 4.0 0.00 0.00 0.00 46 1013.8
20260903005505 81 225 3.0 4.0 0.00 0.00 0.00 46 1013.8
20260903005004 81 225 3.0 4.0 0.00 0.00 0.00 46 1014.0
20260903004504 81 225 3.0 4.0 0.00 0.00 0.00 46 1013.9
20260903004004 81 225 3.0 4.0 0.00 0.00 0.00 46 1013.9
20260903003504 81 270 2.0 4.0 0.00 0.00 0.00 33 1013.9
20260903003005 81 270 2.0 4.0 0.00 0.00 0.00 33 1013.9
20260903002004 81 270 2.0 4.0 0.00 0.00 0.00 33 1013.8
20260903001505 81 270 2.0 4.0 0.00 0.00 0.00 33 1013.8
20260903001004 81 270 2.0 4.0 0.00 0.00 0.00 33 1013.9
20260903000503 81 270 2.0 4.0 0.00 0.00 0.00 33 1013.8
20260903000005 81 270 2.0 4.0 0.00 0.00 0.00 33 1013.8
20260902235505 81 270 2.0 4.0 0.00 0.00 0.00 33 1013.8
20260902235004 81 270 2.0 4.0 0.00 0.00 0.00 33 1013.6
20260902234504 81 270 2.0 4.0 0.00 0.00 0.00 33 1013.8
20260902234004 81 270 2.0 4.0 0.00 0.00 0.00 33 1013.8
20260902233504 81 270 2.0 4.0 0.00 0.00 0.00 33 1013.9
20260902233006 81 270 2.0 4.0 0.00 0.00 0.00 33 1013.7
20260902232005 81 270 2.0 4.0 0.00 0.00 0.00 33 1014.0
20260902231505 81 270 2.0 4.0 0.00 0.00 0.00 33 1013.9
20260902231004 81 270 2.0 4.0 0.00 0.00 0.00 33 1013.9
20260902230504 81 270 2.0 4.0 0.00 0.00 0.00 33 1013.9
20260902230005 81 270 2.0 4.0 0.00 0.00 0.00 33 1013.8
20260902224504 81 270 2.0 4.0 0.00 0.00 0.00 33 1013.8
20260902224004 81 270 2.0 4.0 0.00 0.00 0.00 33 1013.9
20260902223504 81 270 2.0 4.0 0.00 0.00 0.00 33 1013.9
20260902223004 81 270 2.0 4.0 0.00 0.00 0.00 33 1013.8
20260902222504 81 270 2.0 4.0 0.00 0.00 0.00 33 1013.9
20260902222005 81 270 2.0 4.0 0.00 0.00 0.00 33 1014.0
20260902221505 81 270 2.0 4.0 0.00 0.00 0.00 33 1014.0
20260902221004 81 270 2.0 4.0 0.00 0.00 0.00 33 1014.0
20260902220004 81 270 2.0 4.0 0.00 0.00 0.00 33 1014.0
20260902215503 81 270 2.0 4.0 0.00 0.00 0.00 33 1014.0
20260902215004 81 270 2.0 4.0 0.00 0.00 0.00 33 1014.0
20260902214504 81 270 2.0 4.0 0.00 0.00 0.00 33 1014.0
20260902214004 81 270 2.0 4.0 0.00 0.00 0.00 33 1014.0
20260902213505 81 270 2.0 4.0 0.00 0.00 0.00 33 1014.0
20260902213005 81 270 2.0 4.0 0.00 0.00 0.00 33 1014.1
20260902212505 81 270 2.0 4.0 0.00 0.00 0.00 33 1014.1
20260902212004 81 270 2.0 4.0 0.00 0.00 0.00 33 1014.1
20260902211004 81 270 2.0 4.0 0.00 0.00 0.00 33 1014.3
20260902210505 81 270 2.0 4.0 0.00 0.00 0.00 33 1014.2
20260902210005 81 270 2.0 4.0 0.00 0.00 0.00 33 1014.3
20260902205504 81 270 2.0 4.0 0.00 0.00 0.00 33 1014.4
20260902205004 81 270 2.0 4.0 0.00 0.00 0.00 33 1014.3
20260902204505 81 270 2.0 4.0 0.00 0.00 0.00 33 1014.3
20260902204004 81 270 2.0 4.0 0.00 0.00 0.00 33 1014.3
20260902203505 81 270 2.0 4.0 0.00 0.00 0.00 33 1014.3
20260902202504 81 270 2.0 4.0 0.00 0.00 0.00 33 1014.4
20260902202005 81 270 2.0 4.0 0.00 0.00 0.00 33 1014.4
20260902201506 81 270 2.0 4.0 0.00 0.00 0.00 33 1014.2
20260902201004 81 270 2.0 4.0 0.00 0.00 0.00 33 1014.3
20260902200504 81 270 2.0 4.0 0.00 0.00 0.00 33 1014.3
20260902200004 81 270 2.0 4.0 0.00 0.00 0.00 33 1014.2
20260902195004 81 270 2.0 4.0 0.00 0.00 0.00 33 1014.4
20260902194504 81 270 2.0 4.0 0.00 0.00 0.00 33 1014.3
20260902194003 81 270 2.0 4.0 0.00 0.00 0.00 33 1014.4
20260902193504 81 270 2.0 4.0 0.00 0.00 0.00 33 1014.5
20260902193005 81 270 2.0 4.0 0.00 0.00 0.00 33 1014.6
20260902192504 81 270 2.0 4.0 0.00 0.00 0.00 33 1014.6
20260902192004 81 270 2.0 4.0 0.00 0.00 0.00 33 1014.4
20260902191504 81 270 2.0 4.0 0.00 0.00 0.00 33 1014.6
20260902191003 81 269 2.0 4.0 0.00 0.00 0.00 33 1014.6
20260902185004 86 135 1.0 2.0 0.00 0.00 0.00 29 1014.4
20260902184504 86 135 1.0 2.0 0.00 0.00 0.00 29 1014.4
20260902184003 86 135 1.0 2.0 0.00 0.00 0.00 29 1014.2
20260902183504 86 135 1.0 2.0 0.00 0.00 0.00 29 1014.4
20260902182504 86 135 1.0 2.0 0.00 0.00 0.00 29 1014.2
20260902182005 86 135 1.0 2.0 0.00 0.00 0.00 29 1014.3
20260902181505 86 135 1.0 2.0 0.00 0.00 0.00 29 1014.2
20260902181004 86 135 1.0 2.0 0.00 0.00 0.00 29 1014.1
20260902180504 86 135 1.0 2.0 0.00 0.00 0.00 29 1014.1
20260902180007 86 135 1.0 2.0 0.00 0.00 0.00 29 1013.9
20260902174504 86 135 1.0 2.0 0.00 0.00 0.00 29 1014.0
20260902173503 88 1 0.0 1.0 0.00 0.00 0.00 27 1013.9
20260902173005 88 1 0.0 1.0 0.00 0.00 0.00 27 1013.8
20260902172504 88 1 0.0 1.0 0.00 0.00 0.00 27 1014.0
20260902172004 88 1 0.0 1.0 0.00 0.00 0.00 27 1013.7
20260902171505 88 1 0.0 1.0 0.00 0.00 0.00 27 1013.9
20260902171004 88 1 0.0 1.0 0.00 0.00 0.00 27 1013.8
20260902170503 88 1 0.0 2.0 0.00 0.00 0.00 27 1013.9
20260902170005 88 30 0.0 2.0 0.00 0.00 0.00 27 1013.6
20260902165504 88 43 0.0 2.0 0.00 0.00 0.00 27 1013.8
20260902165004 89 33 0.0 2.0 0.00 0.00 0.00 26 1013.6
20260902164505 89 20 1.0 3.0 0.00 0.00 0.00 26 1013.9
20260902164004 90 22 1.0 3.0 0.00 0.00 0.00 25 1013.7
20260902163504 90 17 1.0 4.0 0.00 0.00 0.00 25 1013.9
20260902163005 90 25 1.0 4.0 0.00 0.00 0.00 24 1013.9
20260902162504 90 34 2.0 5.0 0.00 0.00 0.00 24 1014.1
20260902162004 90 40 2.0 5.0 0.00 0.00 0.00 24 1014.0
20260902161504 91 35 1.0 5.0 0.00 0.00 0.00 24 1014.0
20260902161004 91 19 2.0 6.0 0.00 0.00 0.00 23 1013.9
20260902160504 91 5 3.0 9.0 0.00 0.00 0.00 23 1014.0
20260902155504 92 9 3.0 9.0 0.00 0.00 0.00 22 1014.1
20260902154505 92 9 4.0 9.0 0.00 0.00 0.00 22 1014.2
20260902154003 92 3 4.0 9.0 0.00 0.00 0.00 22 1014.1
20260902153504 92 345 3.0 8.0 0.00 0.00 0.00 22 1014.1
20260902153004 92 3 4.0 9.0 0.00 0.00 0.00 22 1013.9
20260902152504 93 20 4.0 9.0 0.00 0.00 0.00 21 1014.0
20260902151504 93 66 4.0 8.0 0.00 0.00 0.00 21 1013.6
20260902151004 93 44 5.0 12.0 0.00 0.00 0.00 21 1013.6
20260902150503 93 12 5.0 12.0 0.00 0.00 0.00 20 1013.6
20260902150004 93 14 4.0 9.0 0.00 0.00 0.00 20 1013.7
20260902145504 93 64 4.0 11.0 0.00 0.00 0.00 20 1013.7
20260902145004 93 94 4.0 11.0 0.00 0.00 0.00 20 1013.8
20260902144004 93 110 6.0 14.0 0.00 0.00 0.00 20 1013.8
20260902143503 93 97 7.0 13.0 0.00 0.00 0.00 20 1013.8
20260902142504 93 96 5.0 11.0 0.00 0.00 0.00 19 1013.9
20260902142003 94 94 6.0 11.0 0.00 0.00 0.00 19 1014.0
20260902141004 94 80 5.0 12.0 0.00 0.00 0.00 19 1014.0
20260902140504 94 81 5.0 12.0 0.00 0.00 0.00 18 1014.0
20260902140004 94 88 4.0 10.0 0.00 0.00 0.00 18 1014.1
20260902135503 95 96 5.0 9.0 0.00 0.00 0.00 18 1014.3
20260902135009 95 76 4.0 9.0 0.00 0.00 0.00 18 1014.3
20260902132004 95 29 4.0 12.0 0.00 0.00 0.00 18 1014.5
20260902131504 95 42 6.0 12.0 0.00 0.00 0.00 18 1014.7
20260902131003 95 46 6.0 13.0 0.00 0.00 0.00 17 1014.8
20260902130504 95 32 7.0 13.0 0.00 0.00 0.00 19 1014.7
20260902130005 94 22 6.0 13.0 0.00 0.00 0.00 18 1014.9
20260902125504 94 14 6.0 14.0 0.00 0.00 0.00 18 1014.8
20260902125004 94 11 7.0 14.0 0.00 0.00 0.00 18 1014.7
20260902124504 94 342 7.0 13.0 0.00 0.00 0.00 18 1014.8
20260902124004 95 338 8.0 15.0 0.00 0.00 0.00 18 1015.0